This is the latest recevied weather packets stored in our database for station/object KA2FNK. If no packets are shown the sender has not sent any weather packets the latest 10 day(s).
| Time | Temp. | Humidity | Pressure | Rain* | Wind** | Luminosity | Snow |
|---|---|---|---|---|---|---|---|
| 1777677379 | 16.67° C | 40% | 1015.7 hPa | 0 mm | - | - | - |
| 1777677077 | 16.67° C | 40% | 1015.6 hPa | 0 mm | - | - | - |
| 1777676777 | 16.67° C | 39% | 1015.7 hPa | 0 mm | - | - | - |
| 1777676475 | 16.67° C | 38% | 1015.7 hPa | 0 mm | - | - | - |
| 1777676174 | 16.67° C | 40% | 1015.7 hPa | 0 mm | - | - | - |
| 1777675873 | 16.67° C | 38% | 1015.6 hPa | 0 mm | - | - | - |
| 1777675572 | 16.67° C | 39% | 1015.7 hPa | 0 mm | - | - | - |
| 1777675271 | 16.67° C | 38% | 1015.7 hPa | 0 mm | - | - | - |
| 1777674971 | 16.67° C | 40% | 1015.8 hPa | 0 mm | - | - | - |
| 1777674670 | 16.67° C | 38% | 1015.7 hPa | 0 mm | - | - | - |
| 1777674386 | 16.67° C | 38% | 1015.8 hPa | 0 mm | - | - | - |
| 1777674068 | 16.67° C | 39% | 1015.7 hPa | 0 mm | - | - | - |
| 1777673766 | 16.67° C | 40% | 1015.7 hPa | 0 mm | - | - | - |
| 1777673466 | 16.67° C | 38% | 1015.8 hPa | 0 mm | - | - | - |
| 1777673165 | 17.22° C | 41% | 1015.8 hPa | 0 mm | - | - | - |
| 1777672864 | 17.22° C | 39% | 1015.9 hPa | 0 mm | - | - | - |
| 1777672562 | 17.78° C | 38% | 1016 hPa | 0 mm | - | - | - |
| 1777672261 | 17.22° C | 38% | 1016 hPa | 0 mm | - | - | - |
| 1777671960 | 16.67° C | 41% | 1016 hPa | 0 mm | - | - | - |
| 1777671659 | 16.67° C | 41% | 1016 hPa | 0 mm | - | - | - |
| 1777671359 | 16.67° C | 40% | 1016.1 hPa | 0 mm | - | - | - |
| 1777671058 | 16.67° C | 40% | 1016.3 hPa | 0 mm | - | - | - |
| 1777670757 | 16.67° C | 43% | 1016.4 hPa | 0 mm | - | - | - |
| 1777670455 | 16.11° C | 43% | 1016.4 hPa | 0 mm | - | - | - |
| 1777670154 | 16.11° C | 41% | 1016.6 hPa | 0 mm | - | - | - |
* Rain latest hour (hover to see other rain measurements)
** Current wind speed in m/s (hover to see current wind gust speed)